Location: Bidart
(43.4376°N, 1.5913°W)
Time: 21:21:00
(UTC+00:00)

ARIANE 5 R/B - Pass Details

Date: 19 May 2025
Orbit: 614 x 648 km, 98.0° (Epoch: 16 June)

Event Time Altitude Azimuth Distance (km) Brightness Sun altitude
Exits shadow 23:01:18 72° 37° (NE) 654 2.6 -25.0°
Drops below altitude 10° 23:05:21 10° 350° (N) 1,998 6.2 -25.2°
Sets 23:07:34 0° 349° (N) 2,914 7.4 -25.3°
